Miscellaneous Local Product
Issued by NWS Hastings, NE

Home | Current Version | Previous Version | Text Only | Print | Product List | Glossary Off
Versions: 1 2 3 4 5 6 7 8 9 10 11 12 13 14 15 16 17 18 19 20 21 22 23 24 25 26 27 28 29 30 31 32 33 34 35 36 37 38 39 40 41 42 43 44 45 46 47 48 49 50

000
AXUS43 KGID 290502
MISGRI

GID CWA HOURLY WEATHER ROUNDUP
NATIONAL WEATHER SERVICE HASTINGS NE
1200 AM CDT MON JUN 29 2015

NOTE: "FAIR" INDICATES FEW OR NO CLOUDS BELOW 12,000 FEET WITH NO
SIGNIFICANT WEATHER AND/OR OBSTRUCTIONS TO VISIBILITY.

...SOUTH CENTRAL NEBRASKA...

CITY           SKY/WX    TMP DP  RH WIND       PRES   REMARKS
GRAND ISLAND   CLEAR     65  55  70 NW3       30.00R
HASTINGS       CLEAR     65  55  70 CALM      30.00R
KEARNEY        CLEAR     64  54  68 NW5       30.02R
ORD            CLEAR     62  56  80 CALM      30.00R
YORK           CLEAR     66  57  72 NW7       29.98R
AURORA         CLEAR     64  57  79 N6        29.99S
LEXINGTON      CLEAR     64  57  79 CALM      30.04R
HOLDREGE       CLEAR     64  56  73 E6        30.02S
HEBRON         CLEAR     67  55  64 N5        29.96S

...NEBRASKA PANHANDLE...

CITY           SKY/WX    TMP DP  RH WIND       PRES   REMARKS
CHADRON        CLEAR     63  60  90 CALM      30.08F
ALLIANCE       CLEAR     62  57  83 CALM      30.12R
SCOTTSBLUFF    CLEAR     70  55  59 E5        30.12R
SIDNEY         CLEAR     64  55  72 S6        30.16R

...WESTERN AND NORTH CENTRAL NEBRASKA...

CITY           SKY/WX    TMP DP  RH WIND       PRES   REMARKS
VALENTINE      CLEAR     61  58  90 SW3       30.04R
AINSWORTH      CLEAR     64  54  70 CALM      30.04S
ONEILL         CLEAR     63  57  80 W3        30.00S
BROKEN BOW     CLEAR     61  55  81 N5        30.04R
IMPERIAL       CLEAR     70  57  63 SE3       30.09R
NORTH PLATTE   CLEAR     63  58  83 CALM      30.06R
MCCOOK         PTCLDY    70  58  65 CALM      30.04R

...EASTERN NEBRASKA...

CITY           SKY/WX    TMP DP  RH WIND       PRES   REMARKS
NORFOLK        CLEAR     65  59  81 W5        29.95R
SO SIOUX CITY  CLEAR     67  58  72 CALM      29.90S
TEKAMAH        CLEAR     69  60  73 NW7       29.90R
COLUMBUS       CLEAR    N/A N/A N/A W5        29.94R
ALBION         CLEAR     62  56  82 NW5       29.99R
OMAHA EPPLEY   CLEAR     70  61  73 N6        29.89R
OFFUTT AFB     CLEAR     70  59  68 NW6       29.89R
MILLARD        CLEAR     73  60  64 NW6       29.90R
LINCOLN        CLEAR     67  58  72 NW6       29.94R
NEBRASKA CITY  CLEAR     71  54  56 NW8       29.90S
BEATRICE       CLEAR     67  59  74 NW8       29.93S
FALLS CITY     CLEAR     68  60  75 W7        29.88R

...NORTHERN KANSAS...

CITY           SKY/WX    TMP DP  RH WIND       PRES   REMARKS
GOODLAND       CLEAR     66  54  65 SE5       30.12R
HILL CITY      CLEAR     71  54  54 CALM      30.01R
NORTON         CLEAR     68  52  56 CALM      30.01S
PHILLIPSBURG   CLEAR     75  55  50 NE5       30.00R
SMITH CENTER   CLEAR     68  52  56 NE8       29.99S
HAYS           CLEAR     72  54  53 NE10      29.99R
RUSSELL        CLEAR     70  54  56 NE9       29.97R
CONCORDIA      CLEAR     70  53  54 N7        29.96S
SALINA         PTCLDY    74  55  51 N6        29.95R
TOPEKA         CLEAR     72  60  66 W6        29.89R



USA.gov is the U.S. government's official web portal to all federal, state and local government web resources and services.